Pagina principale
METAR-TAF:

METAR-TAF

Aeroporti :

Linden, New Jersey, Stati Uniti

latitudine: 40-37-03N, longitudine: 074-14-40W, altezza: 7 m

Osservazione

Il bollettino è stato emesso 13 minuti fa, alle 22:55 UTC
Vento 14 kt da nord-ovest con raffiche fino a 22 kt
Temperature 1°C
Umidità 55%
Pressione 1019 hPa
Visibilità: 16.1 km
Nuvoloso ad un'altezza di 4200 ft

METAR: KLDJ 182255Z AUTO 31014G22KT 10SM BKN042 01/M07 A3010 RMK AO2 T00121069

Ora: 18:08 (23:08 UTC)


TAF: mancante

Osservazioni e previsioni meteorologiche di più di 4000 aeroporti (messaggi METAR e TAF).

Le stazioni disponibili sono rappresentate dai dischi gialli e rossi sulla carta.

Puntare il mouse per vedere il nome della stazione.

Clicca sopra per visualizzare le osservazioni e previsioni meteorologiche.

Per cambiare la mappa : fare clic sui pulsanti verdi con una croce nera per ingrandire, il pulsante verde con un trattino per diminuire, o sulla freccia verde per le mappe adiacenti.


METAR-TAF: